SCOUT A DEB, 2226

Orbit data source: Space-Track

SCOUT A DEB, 2226 is space debris in LEO originally from a launch on Wed, 22 Dec 1965 UTC launched from the Air Force Western Test Range (AFWTR). Debris objects in space refer to the collection of defunct objects orbiting the Earth. Examples of debris include non-operational satellites, rocket bodies, and fragments generated from explosions, collisions, or faulty payload assembly.

Loading next visibility...
SCOUT A DEB details
Identifier
2226, 1965-109D
Orbit
LEO
Last TLE update20 hours ago
Origin
Flag of USUSN BuWeps (US)
ManufacturerUnknown
MissionSpacecraft
Bus & MotorUnknown
MassUnknown
Launch date (UTC)
1965-12-22 (59 years ago)
Launch vehicleUnknown
Launch site
Air Force Western Test Range (AFWTR)
Object type
Payload
Rocket body
Debris
Shape & HBRUnknown
Radar Cross SectionSmall (<0.1 m²)

Expand to show TLE details & history

TLE from 20 hours ago
0 SCOUT A DEB
1 02226U 65109D   25015.10182108  .00000224  00000-0  26623-3 0  9997
2 02226  89.0696 355.9349 0249654 103.1112 259.8028 13.51055944883728
Epoch: 2025-01-15T02:26Z
Definitive object data (Epoch: 2025-01-15T02:26:37.341Z)
Latitude-0°
Longitude-155.51968°
Altitude1,108.717 km
Speed7.28 km/s
True Right ascension23h 43m 44s
True Declination0° 00' 00"
Sunlit
Object was in daylight at TLE epoch
Visualization TLE readout
Latitude2.72469°
Longitude24.35632°
Altitude1,023.322 km
Speed7.364 km/s
Apparent Right ascension11h 39m 00s
Apparent Declination-16° 50' 47"
Sunlit
Object is in daylight
Visualization observer readout
Local Sidereal Time23:32:36
Azimuth356.1° N
Elevation-66.889°
Doppler factor1
Orbital elements
Apogee altitude1,251.255 km
Perigee altitude879.592 km
Semi-major axis7,443.561 km
Eccentricity0.0249654
Inclination89.0696°
RAAN355.9349°
Arg. of periapsis103.1112°
True anomaly257.00375°
Mean anomaly259.8028°
Eccentric anomaly258.4016°
Mean motion3.37965 °/min
BSTAR0.00026623
Orbital period106.52 mins
Loading maneuver chart data...
Loading historical data...
Loading historical data...
Loading historical data...
Loading historical data...
Loading historical data...
Loading historical data...
Loading historical data...

SCOUT A DEB Visibility forecast

Observer location: undefined°, undefined

Span
Click to sort rows by Start time (UTC) header in descending order
Start Az.
Max El. time (UTC)
Max El. Az.
Max El.
End time (UTC)
End Az.
10 mins2025-01-15 23:52:32.392Z212.938° SW2025-01-15 23:58:32.392Z283.234° WNW28.403°2025-01-16 00:02:32.392Z333.763° NNW
9 mins2025-01-16 11:02:32.392Z354.627° N2025-01-16 11:06:32.392Z252.53° W43.824°2025-01-16 11:11:32.392Z190.302° SSW
|